User: anonymous   Login
Location: La Bastide
(43.1661°N, 1.2755°E)
Time: 20:31:05
(UTC+00:00)
Language:

Cosmos 1937 Rocket - Orbit

View from above orbital plane
View from above orbital plane
View from above satellite
View from above satellite

Ground track
Ground track

The orbit is defined by the following mean orbital elements,

1 19039U          26039.62059153 +.00000000 +00000-0 +68839-4 0 00004
2 19039  74.0448 239.2141 0023370 346.5127  13.5400 14.39937587    05
Epoch (UTC): 08 February 2026 14:53:39
Eccentricity: 0.0023370
inclination: 74.0448°
perigee height: 742 km
apogee height: 775 km
right ascension of ascending node: 239.2141°
argument of perigee: 346.5127°
revolutions per day: 14.39937587
mean anomaly at epoch: 13.5400°

The dashed part of the orbit path shows where the satellite is in the earth's shadow,  

DLR